Location: Unspecified
(49.2170°N, 0.0000°E)
Time: 17:03:03
(UTC+00:00)

A-11 Canister half - Pass Details

Date: 23 January 2021
Orbit: 1516 x 1684 km, 47.2° (Epoch: 05 March)

Event Time Altitude Azimuth Distance (km) Brightness Sun altitude
Rises 21:21:23 0° 239° (WSW) 4,730 11.9 -44.7°
Reaches altitude 10° 21:24:30 10° 237° (WSW) 3,729 11.2 -45.1°
Enters shadow 21:27:47 25° 231° (SW) 2,727 10.3 -45.6°
